FENGYUN 1C DEB, 37432

Orbit data source: Space-Track

FENGYUN 1C DEB, 37432 is space debris in SSO originally from a launch on Mon, 10 May 1999 UTC launched from the Taiyaun Space Center, China (TSC). Fengyun 1C debris stems from the Chinese weather satellite Fengyun-1C, which was intentionally destroyed by a Chinese anti-satellite missile in 2007. This event dramatically increased the amount of space debris, with thousands of trackable fragments posing hazards to satellites and human spaceflight. The Fengyun 1C debris cloud has become a focal point in discussions about space sustainability and the need for international regulations to prevent the creation of new debris.

Loading next visibility...
Identifier
37432, 1999-025EHA
Orbit
SSO
Country
Flag of CNCN / PRC
Related business
Manufacturer
Unknown
Mission
Spacecraft
Bus & Motor
Unknown
Mass
Unknown
Launch date (UTC)
1999-05-10 (27 years ago)
Launch vehicle
Unknown
Launch site
Taiyaun Space Center, China (TSC)
Object type
Payload
Rocket body
Debris
Shape & HBR
Unknown shape, 0.1 m
Radar Cross Section
Small (<0.1 m²)

Expand to show TLE details & history
Last TLE update: 2 days ago

TLE from 2 days ago
0 FENGYUN 1C DEB
1 37432U 99025EHA 26176.29634854  .00004708  00000-0  88987-3 0  9999
2 37432  98.1748 190.3429 0180508  46.3536 315.2469 14.54893463112040
Epoch: 2026-06-25T07:06Z
TLE epoch observation values (Epoch: 2026-06-25T07:06:44.513Z)
Latitude
-0.00007°
Longitude
170.21619°
Altitude
622.981 km
Speed
7.595 km/s
True Right ascension
12h 41m 22s
True Declination
0° 00' 00"
Sunlit
Object was in daylight at epoch
Visualization orbit readout
Latitude
Unknown
Longitude
Unknown
Altitude
Unknown
Speed
Unknown
Apparent Right ascension
Unknown
Apparent Declination
Unknown
Sunlit
N/A
Visualization observer readout
Local Sidereal Time
17:36:01
Azimuth
Unknown
Elevation
Unknown
Doppler factor
Unknown
Orbital elements
Apogee altitude
834.685 km
Perigee altitude
578.907 km
Semi-major axis
7,084.933 km
Eccentricity
0.01805
Inclination
98.1748°
RAAN
190.3429°
Arg. of periapsis
46.3536°
True anomaly
313.76705°
Mean anomaly
315.2469°
Eccentric anomaly
314.50935°
Mean motion
3.63948 °/min
Orbital period
98.92 mins
BSTAR
0.00088987
Loading maneuver chart data...
Computing Atmospheric mass density...

Documentation

Showing up to 5 results
|